Regional Weather Roundup
Issued by NWS Charleston, SC

Current Version | Previous Version | Graphics & Text | Print | Product List | Glossary On
Versions: 1 2 3 4 5 6 7 8 9 10 11 12 13 14 15 16 17 18 19 20 21 22 23 24 25 26 27 28 29 30 31 32 33 34 35 36 37 38 39 40 41 42 43 44 45 46 47 48 49 50
000 ASUS42 KCHS 281510 RWRCHS REGIONAL WEATHER ROUNDUP NATIONAL WEATHER SERVICE CHARLESTON SC 1100 AM EDT THU AUG 28 2014 NOTE: "FAIR" INDICATES FEW OR NO CLOUDS BELOW 12,000 FEET WITH NO SIGNIFICANT WEATHER AND/OR OBSTRUCTIONS TO VISIBILITY. NOT ALL STATIONS ARE QUALITY CONTROLLED BY THE NATIONAL WEATHER SERVICE. USE DATA WITH CAUTION...ESPECIALLY DEWPOINT OBSERVATIONS. SCZ027-030-031-034>040-042>050-281600- ...SOUTH CAROLINA... CITY SKY/WX TMP DP RH WIND PRES REMARKS N CHARLESTON MOSUNNY 84 66 54 W6 30.06R WATERFRONT PRK N/A 81 N/A N/A W5G10 N/A FORT JOHNSON NOT AVBL MOUNT PLEASANT FAIR 82 66 57 W7 30.06R JOHNS ISLAND SUNNY 82 70 65 W5 30.06S PINOPOLIS N/A 84 66 54 CALM 29.97S MONCKS CORNER N/A 82 70 65 CALM 30.05S SUMMERVILLE FAIR 81 68 65 W5 30.07R BEAUFORT MCAS MOSUNNY 83 66 56 NW5 30.06S BEAUFORT ARPT FAIR 82 70 65 W5 30.06R HILTON HEAD IS SUNNY 82 68 61 SW6 30.07R GEORGETOWN NOT AVBL WALTERBORO SUNNY 82 59 44 W8 30.07R ORANGEBURG SUNNY 83 62 49 W7 30.06R BARNWELL FAIR 84 64 51 W5 30.07R AIKEN FAIR 86 63 45 CALM 30.10R MANNING FAIR 82 66 57 W6 30.05S KINGSTREE NOT AVBL COLUMBIA MOSUNNY 86 59 39 VRB7 30.04S SUMTER SUNNY 84 62 46 NW7 30.03S FLORENCE SUNNY 85 59 41 W6 30.03S MYRTLE BEACH SUNNY 84 64 51 W9 30.04S N MYRTLE BEACH NOT AVBL $$ GAZ063-065-086>088-099>101-113>116-118-119-134-136>141-150-281600- ...GEORGIA... CITY SKY/WX TMP DP RH WIND PRES REMARKS SAVANNAH ARPT MOSUNNY 85 65 51 VRB5 30.06S HUNTER AAF SUNNY 83 68 59 VRB6 30.04S FORT STEWART SUNNY 84 63 48 VRB1 30.05S STATESBORO NOT AVBL SYLVANIA SUNNY 84 68 58 W3 30.07S CLAXTON NOT AVBL THOMSON SUNNY 84 66 55 NW3 30.10S AUGUSTA-BUSH SUNNY 84 61 45 VRB6 30.05S AUGUSTA-DANIEL SUNNY 83 60 45 S5 30.07R SWAINSBORO FAIR 86 66 51 CALM 30.07S VIDALIA N/A 84 64 51 SW7 30.07R ALMA SUNNY 83 66 56 VRB3 30.06R WAYCROSS SUNNY 85 68 56 CALM 30.05F JESUP N/A 86 68 54 CALM 30.06S BRUNSWICK SUNNY 82 64 54 CALM 30.06S SAINT SIMONS PTSUNNY 82 67 60 NE5 30.05S $$ SCZ027-028-034-036>038-045-046-048>050-GAZ119-141-281600- ...LAKE AND SUPPLEMENTAL COASTAL OBSERVATIONS... STATION/POSITION TIME TEMP WIND PRES WAVE SWELL AIR SEA DIR/SP/G HT/PER HT/PER/DIR (UTC) (F) (DEG/KT/KT) (MB) (FT/S) (FT/S/D) UPR LAKE MARION NOT AVBL WINYAH BAY 1400 78 300/ 7 1017.0S LAKE MURRAY 1400 82 CALM / 1 1016.9S ACE BASIN NERRS 1400 78 290/ 2 1017.0S FORT PULASKI 1500 79 290/ 5/ 6 1018.0S SAPELO ISLAND 1400 82 330/ 3 1018.0S $$ ANZ835-935-AMZ111-154-330-350-352-354-374-450-454-472-281600- ...C-MAN AND BUOY OBSERVATIONS... STATION/POSITION TIME TEMP WIND PRES WAVE SWELL AIR SEA DIR/SP/G HT/PER HT/PER/DIR (UTC) (F) (DEG/KT/KT) (MB) (FT/S) (FT/S/D) FOLLY BEACH CMAN 1400 79 290/ 6/ 8 1018.1R BUOY 41004 1500 79 82 310/ 6/ 8 1017.4R 5/10 5/10 BUOY 41008 1500 79 84 350/ 6/ 8 1017.4R 3/11 3/ 80/11 5E ST. MARYS GA 1500 83 N/A 3/11 2/ 90/11 FRYING PAN BUOY NOT AVBL BUOY 41025 1500 79 270/ 16/ 17 1014.9R 5/11 5/120/11 CAPE LOOKOUT NC 1400 80 270/ 10/ 11 1015.6F BUOY 41002 1429 80 81 270/ 8/ 10 1017.8R 8/ 8 8/ 50/ 8 BUOY 41010 1500 83 83 160/ 4/ 6 1017.2R 8/ 9 8/ 40/ 9 BUOY 41012 NOT AVBL ST AUGUSTINE FL 1500 78 20/ 8/ 8 1018.1S CAPERS NEARSHORE 1400 80 300/ 6/ 8 N/A FRIPP NEARSHORE NOT AVBL $$

USA.gov is the U.S. government's official web portal to all federal, state and local government web resources and services.